CZ-6A DEB, 54448

Orbit data source: Space-Track

CZ-6A DEB, 54448 is space debris in SSO originally from a launch on Fri, 11 Nov 2022 UTC launched from the Taiyaun Space Center, China (TSC). Debris objects in space refer to the collection of defunct objects orbiting the Earth. Examples of debris include non-operational satellites, rocket bodies, and fragments generated from explosions, collisions, or faulty payload assembly.

Loading next visibility...
Identifier
54448, 2022-151FY
Orbit
SSO
Country
Flag of CNCN / PRC
Related business
Manufacturer
SAST
Mission
Spacecraft
Bus & Motor
Unknown
Mass
Unknown
Launch date (UTC)
2022-11-11 (4 years ago)
Launch vehicle
Unknown
Launch site
Taiyaun Space Center, China (TSC)
Object type
Payload
Rocket body
Debris
Shape & HBR
Unknown shape, 0.1 m
Radar Cross Section
Medium (>0.1 m² and <1 m²)

Expand to show TLE details & history
Last TLE update: 2 days ago

TLE from 2 days ago
0 CZ-6A DEB
1 54448U 22151FY  26171.01601884  .00000268  00000-0  14900-3 0  9994
2 54448  98.7621 180.5922 0024625 338.4912  21.5227 14.19095466186252
Epoch: 2026-06-20T00:23Z
TLE epoch observation values (Epoch: 2026-06-20T00:23:04.027Z)
Latitude
-0.00006°
Longitude
-93.41127°
Altitude
814.819 km
Speed
7.454 km/s
True Right ascension
12h 02m 22s
True Declination
0° 00' 00"
Sunlit
Object was in daylight at epoch
Visualization orbit readout
Latitude
Unknown
Longitude
Unknown
Altitude
Unknown
Speed
Unknown
Apparent Right ascension
Unknown
Apparent Declination
Unknown
Sunlit
N/A
Visualization observer readout
Local Sidereal Time
21:33:34
Azimuth
Unknown
Elevation
Unknown
Doppler factor
Unknown
Orbital elements
Apogee altitude
843.315 km
Perigee altitude
807.837 km
Semi-major axis
7,203.713 km
Eccentricity
0.00246
Inclination
98.7621°
RAAN
180.5922°
Arg. of periapsis
338.4912°
True anomaly
21.62652°
Mean anomaly
21.5227°
Eccentric anomaly
21.57458°
Mean motion
3.54984 °/min
Orbital period
101.41 mins
BSTAR
0.000149
Loading maneuver chart data...
Computing Atmospheric mass density...
Loading historical data...
Loading historical data...
Loading historical data...
Loading historical data...
Loading historical data...
Loading historical data...
Loading historical data...

Documentation

Showing up to 5 results
|